Weather reports worldwide

Advertisment
Leek Thorncliffe, United Kingdom (3330): temperature & dewpoint: 18.05.2018 12:00:00 - 24.05.2018 12:00:00 (BST)Leek Thorncliffe, United Kingdom (3330): temperature -20cm & temperature -100cm: 18.05.2018 12:00:00 - 24.05.2018 12:00:00 (BST)Leek Thorncliffe, United Kingdom (3330): wind speed & gusts: 18.05.2018 12:00:00 - 24.05.2018 12:00:00 (BST)Leek Thorncliffe, United Kingdom (3330): wind direction: 18.05.2018 12:00:00 - 24.05.2018 12:00:00 (BST)Leek Thorncliffe, United Kingdom (3330): reduced air pressure: 18.05.2018 12:00:00 - 24.05.2018 12:00:00 (BST)Leek Thorncliffe, United Kingdom (3330): visibility: 18.05.2018 12:00:00 - 24.05.2018 12:00:00 (BST)Leek Thorncliffe, United Kingdom (3330): precipitation: 18.05.2018 12:00:00 - 24.05.2018 12:00:00 (BST)
Date & Time tt [°C] td [°C] tt -20cm [°C] tt -100cm [°C] ff [km/h] ff [kn] fx [km/h] fx [kn] dd ppp [hPa] vv [km] rr [mm]
24.05.2018 12:00:00 15,4 9,7 - - 37 20 50 27 E 1022,0 21 0,0
24.05.2018 11:00:00 14,4 9,4 - - 39 21 48 26 E 1022,4 23 0,0
24.05.2018 10:00:00 13,7 9,0 14,7 11,5 37 20 48 26 E 1022,8 12 0,0
24.05.2018 09:00:00 12,0 7,8 - - 41 22 52 28 E 1023,2 19 0,0
24.05.2018 08:00:00 9,8 6,6 - - 42 23 54 29 E 1023,3 16 0,0
24.05.2018 07:00:00 9,6 6,0 - - 42 23 54 29 E 1023,3 22 0,0
24.05.2018 06:00:00 8,8 5,5 - - 44 24 54 29 E 1023,5 18 0,0
24.05.2018 05:00:00 8,5 5,5 - - 42 23 54 29 E 1023,5 20 0,0
24.05.2018 04:00:00 8,0 5,4 - - 44 24 55 30 E 1024,1 16 0,0
24.05.2018 03:00:00 8,4 5,9 - - 37 20 52 28 E 1024,7 15 0,0
24.05.2018 02:00:00 8,4 5,9 - - 41 22 52 28 ENE 1024,9 17 0,0
24.05.2018 01:00:00 8,8 5,8 - - 42 23 55 30 E 1025,0 20 0,0
24.05.2018 00:00:00 9,2 6,1 - - 42 23 52 28 ENE 1025,2 24 0,0
23.05.2018 23:00:00 10,2 6,1 - - 39 21 52 28 ENE 1025,6 40 0,0
23.05.2018 22:00:00 10,9 6,6 - - 41 22 52 28 E 1025,5 35 0,0
23.05.2018 21:00:00 12,4 7,8 - - 35 19 48 26 ENE 1025,1 30 0,0
23.05.2018 20:00:00 14,6 8,8 - - 37 20 46 25 E 1024,7 27 0,0
23.05.2018 19:00:00 16,3 9,7 - - 35 19 - - E 1024,2 29 0,0
23.05.2018 18:00:00 17,4 10,1 - - 26 14 - - ENE 1024,4 21 0,0
23.05.2018 17:00:00 17,4 9,7 - - 29 16 - - E 1024,4 19 0,0
23.05.2018 16:00:00 17,1 9,7 - - 31 17 - - E 1024,6 14 0,0
23.05.2018 15:00:00 17,0 10,4 - - 34 18 - - ENE 1025,0 15 0,0
23.05.2018 14:00:00 15,9 9,4 - - 28 15 - - E 1025,5 12 0,0
23.05.2018 13:00:00 15,5 9,9 - - 21 11 - - ENE 1025,7 19 0,0
23.05.2018 12:00:00 14,3 8,6 - - 21 11 - - ENE 1026,1 13 0,0
23.05.2018 11:00:00 13,6 8,2 - - 11 6 - - ENE 1026,0 24 0,0
23.05.2018 10:00:00 12,6 8,5 14,7 11,2 9 5 - - SSW 1025,9 12 0,0
23.05.2018 09:00:00 10,3 7,1 - - 18 10 - - ESE 1025,8 12 0,0
23.05.2018 08:00:00 9,2 6,8 - - 34 18 46 25 E 1025,3 11 0,0
23.05.2018 07:00:00 7,9 6,4 - - 22 12 - - E 1025,2 9 0,0
23.05.2018 06:00:00 6,8 5,9 - - 15 8 - - SE 1025,0 8 0,0
23.05.2018 05:00:00 6,6 5,8 - - 21 11 - - NE 1024,7 6 0,0
23.05.2018 04:00:00 6,6 5,5 - - 11 6 54 29 NE 1024,4 7 0,0
23.05.2018 03:00:00 7,2 5,8 - - 42 23 52 28 E 1023,4 8 0,0
23.05.2018 02:00:00 7,3 5,7 - - 42 23 52 28 E 1023,5 9 0,0
23.05.2018 01:00:00 7,2 5,9 - - 41 22 50 27 E 1023,6 9 0,0
23.05.2018 00:00:00 6,9 5,9 - - 22 12 - - ENE 1024,1 8 0,0
22.05.2018 23:00:00 7,8 6,2 - - 9 5 - - NE 1024,0 11 0,0
22.05.2018 22:00:00 9,3 6,8 - - 29 16 - - ENE 1022,9 17 0,0
22.05.2018 21:00:00 11,1 7,4 - - 22 12 - - ENE 1022,1 35 0,0
22.05.2018 20:00:00 13,9 7,8 - - 21 11 - - ENE 1021,2 30 0,0
22.05.2018 19:00:00 15,9 7,6 - - 24 13 - - ENE 1020,7 25 0,0
22.05.2018 18:00:00 16,4 8,6 - - 24 13 - - NE 1020,4 23 0,0
22.05.2018 17:00:00 17,5 10,0 - - 22 12 - - NE 1020,0 27 0,0
22.05.2018 16:00:00 17,7 9,5 - - 28 15 - - E 1019,7 14 0,0
22.05.2018 15:00:00 18,6 10,9 - - 29 16 - - ENE 1019,3 35 0,0
22.05.2018 14:00:00 17,6 9,6 - - 28 15 - - ENE 1019,3 40 0,0
22.05.2018 13:00:00 17,2 9,9 - - 31 17 - - ENE 1019,1 20 0,0
22.05.2018 12:00:00 15,9 9,8 - - 29 16 46 25 ENE 1019,1 29 0,0
22.05.2018 11:00:00 14,6 9,3 - - 26 14 - - NE 1019,8 17 0,0
22.05.2018 10:00:00 12,9 8,5 14,7 11,2 21 11 - - NE 1019,9 26 0,0
22.05.2018 09:00:00 12,3 8,1 - - 18 10 - - NE 1019,7 23 0,0
22.05.2018 08:00:00 11,0 6,8 - - 15 8 - - NNE 1019,2 15 0,0
22.05.2018 07:00:00 11,3 6,8 - - 8 4 - - N 1018,2 21 0,0
22.05.2018 06:00:00 9,6 6,2 - - 15 8 - - NE 1018,2 23 0,0
22.05.2018 05:00:00 9,1 7,0 - - 16 9 - - NE 1018,2 18 0,0
22.05.2018 04:00:00 7,9 7,3 - - 8 4 - - NNE 1018,3 9 0,0
22.05.2018 03:00:00 8,3 7,4 - - 11 6 - - NNE 1018,4 8 0,0
22.05.2018 02:00:00 8,9 7,7 - - 9 5 - - N 1018,3 12 0,0
22.05.2018 01:00:00 10,0 8,0 - - 8 4 - - N 1017,9 12 0,0
22.05.2018 00:00:00 11,4 8,6 - - 9 5 - - N 1018,0 15 0,0
21.05.2018 23:00:00 12,4 8,2 - - 11 6 - - N 1017,9 22 0,0
21.05.2018 22:00:00 13,2 8,8 - - 11 6 - - N 1017,8 16 0,0
21.05.2018 21:00:00 14,2 9,3 - - 11 6 - - N 1017,3 16 0,0
21.05.2018 20:00:00 16,1 10,5 - - 4 2 - - NNE 1016,8 17 0,0
21.05.2018 19:00:00 17,9 9,8 - - 4 2 - - NNE 1016,2 15 0,0
21.05.2018 18:00:00 20,5 9,9 - - 13 7 - - ENE 1015,7 19 0,0
21.05.2018 17:00:00 20,6 11,5 - - 15 8 - - E 1015,7 12 0,0
21.05.2018 16:00:00 21,2 11,5 - - 13 7 - - E 1016,0 15 0,0
21.05.2018 15:00:00 20,9 12,0 - - 13 7 - - E 1016,4 16 0,0
21.05.2018 14:00:00 19,4 11,0 - - 8 4 - - ESE 1016,9 13 0,0
21.05.2018 13:00:00 18,7 10,2 - - 11 6 - - E 1017,2 13 0,0
21.05.2018 12:00:00 18,6 8,7 - - 8 4 - - SE 1017,6 11 0,0
21.05.2018 11:00:00 17,3 6,8 - - 8 4 - - ESE 1018,0 17 0,0
21.05.2018 10:00:00 15,5 4,3 14,4 11,0 15 8 - - ESE 1018,3 27 0,0
21.05.2018 09:00:00 14,9 8,0 - - 11 6 - - ESE 1018,5 30 0,0
21.05.2018 08:00:00 14,0 8,5 - - 9 5 - - ESE 1018,8 24 0,0
21.05.2018 07:00:00 12,2 8,7 - - 8 4 - - ESE 1018,8 30 0,0
21.05.2018 06:00:00 10,0 8,1 - - 15 8 - - ESE 1019,1 12 0,0
21.05.2018 05:00:00 10,1 8,0 - - 11 6 - - SE 1019,1 13 0,0
21.05.2018 04:00:00 10,6 8,3 - - 11 6 - - SE 1019,3 16 0,0
21.05.2018 03:00:00 11,0 8,1 - - 9 5 - - SE 1019,5 20 0,0
21.05.2018 02:00:00 11,9 9,0 - - 24 13 - - ESE 1019,5 19 0,0
21.05.2018 01:00:00 12,6 8,7 - - 22 12 - - ESE 1019,8 30 0,0
21.05.2018 00:00:00 13,2 8,5 - - 26 14 - - ESE 1019,9 28 0,0
20.05.2018 23:00:00 13,6 8,5 - - 21 11 - - ESE 1019,9 30 0,0
20.05.2018 22:00:00 14,8 8,4 - - 21 11 - - ESE 1019,7 35 0,0
20.05.2018 21:00:00 15,0 7,7 - - 13 7 - - SE 1019,3 35 0,0
20.05.2018 20:00:00 16,9 8,7 - - 13 7 - - SE 1018,9 30 0,0
20.05.2018 19:00:00 18,5 8,7 - - 11 6 - - SE 1018,8 28 0,0
20.05.2018 18:00:00 19,4 9,5 - - 8 4 - - SSE 1019,0 30 0,0
20.05.2018 17:00:00 19,9 9,2 - - 9 5 - - S 1019,2 20 0,0
20.05.2018 16:00:00 19,9 9,2 - - 13 7 - - SSW 1019,7 26 0,0
20.05.2018 15:00:00 19,7 9,7 - - 13 7 - - S 1020,3 16 0,0
20.05.2018 14:00:00 19,0 8,0 - - 11 6 - - S 1020,7 20 0,0
20.05.2018 13:00:00 19,2 8,6 - - 11 6 - - S 1021,1 30 0,0
20.05.2018 12:00:00 18,9 10,5 - - 8 4 - - SSW 1021,3 22 0,0
20.05.2018 11:00:00 17,8 8,9 - - 11 6 - - SSW 1021,7 35 0,0
20.05.2018 10:00:00 16,9 8,9 14,0 10,9 9 5 - - S 1022,0 17 0,0
20.05.2018 09:00:00 16,1 8,8 - - 4 2 - - S 1022,1 35 0,0
20.05.2018 08:00:00 13,9 7,6 - - 4 2 - - S 1022,3 30 0,0
20.05.2018 07:00:00 12,4 7,9 - - 4 2 - - ENE 1022,4 30 0,0
20.05.2018 06:00:00 10,9 5,8 - - 5 3 - - SSE 1022,2 26 0,0
20.05.2018 05:00:00 11,1 5,5 - - 9 5 - - SSE 1022,2 22 0,0
20.05.2018 04:00:00 10,9 5,2 - - 11 6 - - SE 1022,4 26 0,0
20.05.2018 03:00:00 11,4 5,7 - - 13 7 - - SSE 1022,3 27 0,0
20.05.2018 02:00:00 11,0 6,5 - - 13 7 - - SE 1022,2 25 0,0
20.05.2018 01:00:00 11,7 6,7 - - 13 7 - - SE 1022,6 10 0,0
20.05.2018 00:00:00 12,3 6,9 - - 15 8 - - SE 1022,5 13 0,0
19.05.2018 23:00:00 13,1 7,1 - - 15 8 - - SE 1022,3 10 0,0
19.05.2018 22:00:00 13,5 7,1 - - 13 7 - - SE 1022,4 11 0,0
19.05.2018 21:00:00 14,1 7,2 - - 13 7 - - SE 1021,9 15 0,0
19.05.2018 20:00:00 16,6 7,9 - - 8 4 - - SSE 1021,6 21 0,0
19.05.2018 19:00:00 17,4 8,4 - - 11 6 - - S 1021,4 22 0,0
19.05.2018 18:00:00 18,2 7,9 - - 11 6 - - S 1021,7 30 0,0
19.05.2018 17:00:00 18,1 7,4 - - 13 7 - - S 1021,9 23 0,0
19.05.2018 16:00:00 17,9 6,9 - - 11 6 - - S 1022,3 14 0,0
19.05.2018 15:00:00 18,2 7,0 - - 9 5 - - S 1022,6 27 0,0
19.05.2018 14:00:00 18,6 8,7 - - 8 4 - - WSW 1022,9 35 0,0
19.05.2018 13:00:00 17,4 6,2 - - 8 4 - - SSW 1023,5 12 0,0
19.05.2018 12:00:00 17,0 6,5 - - 8 4 - - SSW 1023,8 22 0,0
19.05.2018 11:00:00 16,1 5,4 - - 5 3 - - S 1024,0 17 0,0
19.05.2018 10:00:00 15,4 6,5 13,2 10,7 8 4 - - SSW 1024,3 16 0,0
19.05.2018 09:00:00 14,7 6,7 - - 2 1 - - W 1024,3 21 0,0
19.05.2018 08:00:00 12,3 8,6 - - 2 1 - - W 1024,5 18 0,0
19.05.2018 07:00:00 10,6 6,2 - - 2 1 - - E 1024,4 17 0,0
19.05.2018 06:00:00 7,7 4,7 - - 2 1 - - SE 1024,5 17 0,0
19.05.2018 05:00:00 8,4 5,3 - - 2 1 - - S 1024,3 19 0,0
19.05.2018 04:00:00 7,5 4,2 - - 0 0 - - N 1024,6 15 0,0
19.05.2018 03:00:00 8,2 4,9 - - 4 2 - - ESE 1024,8 17 0,0
19.05.2018 02:00:00 7,7 3,9 - - 4 2 - - E 1025,0 19 0,0
19.05.2018 01:00:00 8,7 4,8 - - 2 1 - - N 1024,9 21 0,0
19.05.2018 00:00:00 9,2 4,6 - - 13 7 - - E 1025,0 17 0,0
18.05.2018 23:00:00 8,7 2,8 - - 8 4 - - ENE 1025,2 14 0,0
18.05.2018 22:00:00 10,0 3,2 - - 2 1 - - ENE 1025,0 13 0,0
18.05.2018 21:00:00 12,0 4,3 - - 0 0 - - N 1024,4 19 0,0
18.05.2018 20:00:00 14,1 3,8 - - 4 2 - - NW 1024,1 35 0,0
18.05.2018 19:00:00 15,4 4,5 - - 5 3 - - WNW 1023,9 30 0,0
18.05.2018 18:00:00 15,6 3,1 - - 8 4 - - WNW 1024,1 28 0,0
18.05.2018 17:00:00 15,1 3,5 - - 8 4 - - WNW 1024,3 40 0,0
18.05.2018 16:00:00 15,5 3,9 - - 8 4 - - WNW 1024,4 40 0,0
18.05.2018 15:00:00 15,5 4,4 - - 5 3 - - NW 1024,6 17 0,0
18.05.2018 14:00:00 14,5 4,1 - - 8 4 - - WSW 1024,8 40 0,0
18.05.2018 13:00:00 14,2 4,2 - - 5 3 - - WSW 1025,2 19 0,0
18.05.2018 12:00:00 13,2 5,6 - - 5 3 - - WSW 1025,6 22 0,0

tt = temperature
td = dewpoint
tt -20cm = temperature -20cm
tt -100cm = temperature -100cm
ff = wind speed
fx = gusts
dd = wind direction
ppp = reduced air pressure
vv = visibility
rr = precipitation

Next stations